AAL1410 KMIA-KJFK

Flight info

Callsign AAL1410
Flight time N/A
Altitude 37000
Route FOLZZ3 ALYRA PELCN Y309 FLRDA SAGGY CHIEZ Q161 KALDA Q108 SIE CAMRN5
Aircraft B77W/H-SDE1E2E3FGHIJ2J3J4J5M1RWXY/LB1D1

Departure

Time 2026-05-06 15:20
Airport Miami International Airport (KMIA)

Arrival

Time N/A
Airport John F. Kennedy International Airport (KJFK)
Time Latitude Longitude Altitude Speed Heading
2026-05-06 14:44 25.79788 -80.27942 21 ft 0 kts 178°
2026-05-06 15:02 25.79799 -80.27942 21 ft 4 kts 178°
2026-05-06 15:02 25.79826 -80.27943 21 ft 4 kts 179°
2026-05-06 15:03 25.79850 -80.27943 21 ft 4 kts 186°
2026-05-06 15:03 25.79871 -80.27937 20 ft 4 kts 219°
2026-05-06 15:03 25.79881 -80.27923 19 ft 4 kts 262°
2026-05-06 15:03 25.79882 -80.27894 19 ft 4 kts 271°
2026-05-06 15:04 25.79882 -80.27881 19 ft 1 kts 267°
2026-05-06 15:09 25.79882 -80.27882 19 ft 0 kts 267°
2026-05-06 15:09 25.79881 -80.27908 19 ft 6 kts 267°
2026-05-06 15:10 25.79878 -80.27953 19 ft 6 kts 267°
2026-05-06 15:10 25.79887 -80.27998 19 ft 7 kts 292°
2026-05-06 15:10 25.79896 -80.28053 18 ft 7 kts 272°
2026-05-06 15:10 25.79901 -80.28108 19 ft 5 kts 285°
2026-05-06 15:11 25.79924 -80.28139 18 ft 5 kts 330°
2026-05-06 15:11 25.79961 -80.28144 18 ft 6 kts 356°
2026-05-06 15:11 25.80001 -80.28151 19 ft 6 kts 339°
2026-05-06 15:11 25.80028 -80.28186 19 ft 7 kts 290°
2026-05-06 15:12 25.80037 -80.28282 20 ft 19 kts 269°
2026-05-06 15:12 25.80030 -80.28443 20 ft 22 kts 268°
2026-05-06 15:12 25.80026 -80.28572 23 ft 13 kts 267°
2026-05-06 15:12 25.80023 -80.28655 30 ft 10 kts 267°
2026-05-06 15:13 25.80020 -80.28736 27 ft 10 kts 268°
2026-05-06 15:13 25.80017 -80.28817 27 ft 11 kts 267°
2026-05-06 15:13 25.80013 -80.28902 30 ft 12 kts 267°
2026-05-06 15:13 25.80008 -80.28998 25 ft 12 kts 266°
2026-05-06 15:14 25.80003 -80.29094 26 ft 12 kts 267°
2026-05-06 15:14 25.79999 -80.29190 26 ft 12 kts 267°
2026-05-06 15:14 25.79995 -80.29286 26 ft 13 kts 268°
2026-05-06 15:14 25.79991 -80.29398 23 ft 16 kts 268°
2026-05-06 15:15 25.79986 -80.29527 19 ft 17 kts 267°
2026-05-06 15:15 25.79982 -80.29647 19 ft 13 kts 267°
2026-05-06 15:15 25.79977 -80.29744 19 ft 13 kts 266°
2026-05-06 15:15 25.79973 -80.29827 17 ft 11 kts 267°
2026-05-06 15:16 25.79970 -80.29893 17 ft 4 kts 267°
2026-05-06 15:16 25.79969 -80.29925 16 ft 4 kts 267°
2026-05-06 15:16 25.79967 -80.29957 16 ft 5 kts 267°
2026-05-06 15:16 25.79965 -80.29994 17 ft 5 kts 266°
2026-05-06 15:17 25.79965 -80.30031 17 ft 5 kts 274°
2026-05-06 15:17 25.79974 -80.30067 18 ft 5 kts 292°
2026-05-06 15:17 25.79990 -80.30100 19 ft 5 kts 308°
2026-05-06 15:17 25.80019 -80.30119 20 ft 5 kts 341°
2026-05-06 15:18 25.80052 -80.30122 20 ft 5 kts
2026-05-06 15:18 25.80071 -80.30088 19 ft 6 kts 77°
2026-05-06 15:18 25.80075 -80.30050 18 ft 0 kts 86°
2026-05-06 15:19 25.80077 -80.30022 18 ft 16 kts 86°
2026-05-06 15:19 25.80098 -80.29589 19 ft 98 kts 87°
2026-05-06 15:20 25.80138 -80.28550 28 ft 169 kts 88°
2026-05-06 15:20 25.80198 -80.27116 398 ft 188 kts 86°
2026-05-06 15:20 25.80247 -80.25723 1326 ft 184 kts 102°
2026-05-06 15:20 25.79722 -80.24397 1715 ft 200 kts 118°
2026-05-06 15:21 25.79039 -80.22920 1960 ft 231 kts 117°
2026-05-06 15:21 25.78285 -80.21255 2424 ft 251 kts 116°
2026-05-06 15:21 25.77481 -80.19495 3259 ft 259 kts 116°
2026-05-06 15:21 25.76657 -80.17699 4171 ft 263 kts 117°
2026-05-06 15:22 25.75774 -80.15893 5054 ft 268 kts 118°
2026-05-06 15:22 25.74862 -80.14060 5934 ft 273 kts 117°
2026-05-06 15:22 25.74240 -80.12070 6657 ft 279 kts 94°
2026-05-06 15:22 25.74549 -80.09957 7451 ft 282 kts 65°
2026-05-06 15:23 25.75649 -80.08165 8201 ft 283 kts 49°
2026-05-06 15:23 25.76959 -80.06491 8928 ft 290 kts 48°
2026-05-06 15:23 25.78299 -80.04812 9758 ft 292 kts 47°
2026-05-06 15:23 25.79661 -80.03115 10507 ft 299 kts 47°
2026-05-06 15:24 25.81097 -80.01327 10796 ft 323 kts 46°
2026-05-06 15:24 25.82648 -79.99384 11005 ft 349 kts 47°
2026-05-06 15:24 25.84310 -79.97293 11315 ft 371 kts 47°
2026-05-06 15:24 25.86036 -79.95109 11972 ft 381 kts 47°
2026-05-06 15:25 25.87792 -79.92880 12874 ft 385 kts 46°
2026-05-06 15:25 25.89564 -79.90625 13811 ft 389 kts 46°
2026-05-06 15:25 25.91351 -79.88351 14696 ft 393 kts 46°
2026-05-06 15:25 25.93156 -79.86051 15512 ft 398 kts 45°
2026-05-06 15:26 25.94988 -79.83716 16298 ft 403 kts 45°
2026-05-06 15:26 25.96843 -79.81352 17059 ft 408 kts 45°
2026-05-06 15:26 25.98721 -79.78956 17804 ft 413 kts 45°
2026-05-06 15:26 26.00615 -79.76539 18528 ft 417 kts 45°
2026-05-06 15:27 26.02533 -79.74090 19219 ft 422 kts 45°
2026-05-06 15:27 26.04475 -79.71609 19850 ft 428 kts 45°
2026-05-06 15:27 26.06437 -79.69099 20466 ft 433 kts 45°
2026-05-06 15:27 26.08424 -79.66559 21054 ft 438 kts 45°
2026-05-06 15:28 26.10438 -79.63983 21644 ft 443 kts 45°
2026-05-06 15:28 26.12383 -79.61277 22195 ft 451 kts 49°
2026-05-06 15:28 26.14209 -79.58406 22749 ft 457 kts 51°
2026-05-06 15:28 26.16003 -79.55463 23286 ft 462 kts 52°
2026-05-06 15:29 26.17817 -79.52492 23801 ft 466 kts 51°
2026-05-06 15:29 26.19665 -79.49511 24301 ft 470 kts 51°
2026-05-06 15:29 26.21546 -79.46520 24820 ft 473 kts 50°
2026-05-06 15:29 26.23450 -79.43515 25336 ft 476 kts 50°
2026-05-06 15:30 26.25368 -79.40490 25858 ft 479 kts 50°
2026-05-06 15:30 26.27293 -79.37455 26352 ft 482 kts 50°
2026-05-06 15:30 26.29373 -79.34551 26710 ft 478 kts 39°
2026-05-06 15:30 26.31990 -79.32368 27090 ft 469 kts 27°
2026-05-06 15:31 26.34792 -79.30463 27536 ft 472 kts 26°
2026-05-06 15:31 26.37612 -79.28561 27999 ft 474 kts 26°
2026-05-06 15:31 26.40427 -79.26639 28459 ft 476 kts 27°
2026-05-06 15:32 26.46065 -79.22695 29344 ft 480 kts 27°
2026-05-06 15:32 26.48885 -79.20690 29736 ft 481 kts 27°
2026-05-06 15:32 26.51673 -79.18700 30086 ft 484 kts 27°
2026-05-06 15:32 26.54511 -79.16670 30489 ft 484 kts 27°
2026-05-06 15:33 26.57338 -79.14644 30955 ft 483 kts 27°
2026-05-06 15:33 26.60158 -79.12622 31443 ft 481 kts 27°
2026-05-06 15:33 26.62964 -79.10610 31896 ft 479 kts 27°
2026-05-06 15:33 26.65774 -79.08595 32308 ft 479 kts 27°
2026-05-06 15:34 26.68585 -79.06583 32700 ft 479 kts 27°
2026-05-06 15:34 26.71385 -79.04577 33158 ft 478 kts 27°
2026-05-06 15:34 26.74178 -79.02572 33613 ft 476 kts 27°
2026-05-06 15:34 26.76964 -79.00571 34010 ft 475 kts 26°
2026-05-06 15:35 26.79744 -78.98574 34397 ft 474 kts 26°
2026-05-06 15:35 26.82518 -78.96581 34773 ft 474 kts 26°
2026-05-06 15:35 26.85290 -78.94588 35113 ft 473 kts 26°
2026-05-06 15:35 26.88064 -78.92594 35464 ft 473 kts 26°
2026-05-06 15:36 26.90826 -78.90602 35810 ft 472 kts 26°
2026-05-06 15:36 26.93588 -78.88612 36123 ft 472 kts 26°
2026-05-06 15:36 26.96352 -78.86620 36438 ft 472 kts 26°
2026-05-06 15:36 26.99116 -78.84628 36764 ft 471 kts 26°
2026-05-06 15:37 27.00933 -78.83316 37058 ft 469 kts 26°
2026-05-06 15:37 27.03681 -78.81331 37094 ft 470 kts 26°
2026-05-06 15:37 27.09136 -78.77388 37106 ft 462 kts 26°
2026-05-06 15:38 27.14522 -78.73492 37113 ft 460 kts 26°
2026-05-06 15:38 27.19894 -78.69602 37113 ft 460 kts 26°
2026-05-06 15:39 27.25274 -78.65702 37114 ft 460 kts 26°
2026-05-06 15:39 27.30945 -78.62827 37097 ft 437 kts
2026-05-06 15:40 27.36991 -78.62156 37121 ft 442 kts
2026-05-06 15:40 27.43153 -78.61427 37117 ft 447 kts
2026-05-06 15:41 27.49347 -78.60638 37111 ft 448 kts
2026-05-06 15:41 27.55494 -78.59837 37113 ft 447 kts
2026-05-06 15:42 27.61693 -78.59026 37114 ft 444 kts
2026-05-06 15:42 27.67781 -78.58234 37115 ft 443 kts
2026-05-06 15:43 27.73895 -78.57439 37115 ft 442 kts
2026-05-06 15:43 27.79991 -78.56644 37112 ft 441 kts
2026-05-06 15:44 27.86090 -78.55849 37111 ft 441 kts
2026-05-06 15:44 27.92178 -78.55055 37110 ft 441 kts
2026-05-06 15:45 27.98270 -78.54258 37110 ft 441 kts
2026-05-06 15:45 28.04365 -78.53461 37108 ft 441 kts
2026-05-06 15:46 28.10467 -78.52660 37107 ft 442 kts
2026-05-06 15:46 28.16572 -78.51858 37098 ft 442 kts
2026-05-06 15:47 28.22686 -78.51052 37101 ft 442 kts
2026-05-06 15:47 28.28793 -78.50252 37107 ft 442 kts
2026-05-06 15:48 28.34917 -78.49447 37101 ft 443 kts
2026-05-06 15:48 28.41037 -78.48639 37098 ft 442 kts
2026-05-06 15:49 28.47151 -78.47831 37099 ft 443 kts
2026-05-06 15:49 28.53269 -78.47024 37107 ft 442 kts
2026-05-06 15:50 28.59381 -78.46215 37111 ft 442 kts
2026-05-06 15:50 28.65497 -78.45405 37110 ft 443 kts
2026-05-06 15:51 28.71617 -78.44594 37108 ft 443 kts
2026-05-06 15:51 28.77739 -78.43780 37111 ft 443 kts
2026-05-06 15:52 28.83857 -78.42966 37114 ft 443 kts
2026-05-06 15:52 28.89972 -78.42152 37111 ft 442 kts
2026-05-06 15:53 28.96078 -78.41338 37107 ft 442 kts 360°
2026-05-06 15:53 29.02186 -78.40525 37117 ft 441 kts 360°
2026-05-06 15:54 29.08293 -78.39709 37113 ft 441 kts 360°
2026-05-06 15:54 29.14347 -78.38900 37105 ft 441 kts 360°
2026-05-06 15:55 29.20442 -78.38082 37116 ft 441 kts 359°
2026-05-06 15:55 29.26533 -78.37266 37113 ft 440 kts 359°
2026-05-06 15:56 29.32622 -78.36451 37111 ft 441 kts 359°
2026-05-06 15:56 29.38719 -78.35630 37111 ft 441 kts 359°